This is the latest recevied weather packets stored in our database for station/object K2BIG. If no packets are shown the sender has not sent any weather packets the latest 1 day(s).
| Time | Temp. | Humidity | Pressure | Rain* | Wind** | Luminosity | Snow |
|---|---|---|---|---|---|---|---|
| 1778019017 | 26.67° C | 36% | 1006.1 hPa | 0 mm | 3.13 m/s, 203° | - | - |
| 1778018717 | 27.22° C | 36% | 1006.1 hPa | 0 mm | 3.13 m/s, 203° | - | - |
| 1778018417 | 27.78° C | 35% | 1006 hPa | 0 mm | 2.24 m/s, 225° | - | - |
| 1778018126 | 27.78° C | 35% | 1005.9 hPa | 0 mm | 3.58 m/s, 203° | - | - |
| 1778017817 | 27.78° C | 35% | 1005.8 hPa | 0 mm | 3.13 m/s, 203° | - | - |
| 1778017517 | 27.78° C | 35% | 1005.7 hPa | 0 mm | 3.13 m/s, 203° | - | - |
| 1778017217 | 27.78° C | 36% | 1005.7 hPa | 0 mm | 3.13 m/s, 203° | - | - |
| 1778016917 | 27.78° C | 35% | 1005.8 hPa | 0 mm | 3.13 m/s, 225° | - | - |
| 1778016617 | 28.33° C | 34% | 1005.8 hPa | 0 mm | 3.13 m/s, 203° | - | - |
| 1778016317 | 28.33° C | 34% | 1005.8 hPa | 0 mm | 3.58 m/s, 203° | - | - |
| 1778016018 | 27.78° C | 36% | 1005.7 hPa | 0 mm | 3.13 m/s, 158° | - | - |
| 1778015717 | 28.33° C | 34% | 1005.9 hPa | 0 mm | 3.13 m/s, 203° | - | - |
| 1778015417 | 28.33° C | 34% | 1005.8 hPa | 0 mm | 2.68 m/s, 203° | - | - |
| 1778015117 | 28.89° C | 35% | 1005.7 hPa | 0 mm | 2.68 m/s, 225° | - | - |
| 1778014817 | 28.89° C | 34% | 1005.6 hPa | 0 mm | 2.24 m/s, 203° | - | - |
| 1778014517 | 28.89° C | 33% | 1005.6 hPa | 0 mm | 4.47 m/s, 203° | - | - |
| 1778014217 | 29.44° C | 34% | 1005.3 hPa | 0 mm | 3.58 m/s, 203° | - | - |
| 1778013917 | 29.44° C | 34% | 1005.4 hPa | 0 mm | 2.68 m/s, 225° | - | - |
| 1778013616 | 29.44° C | 34% | 1005.5 hPa | 0 mm | 3.13 m/s, 203° | - | - |
| 1778013317 | 29.44° C | 35% | 1005.5 hPa | 0 mm | 3.13 m/s, 203° | - | - |
| 1778013017 | 29.44° C | 35% | 1005.6 hPa | 0 mm | 3.13 m/s, 180° | - | - |
| 1778012718 | 29.44° C | 35% | 1005.5 hPa | 0 mm | 2.68 m/s, 158° | - | - |
| 1778012417 | 28.89° C | 36% | 1005.6 hPa | 0 mm | 3.13 m/s, 203° | - | - |
| 1778012117 | 28.89° C | 36% | 1005.6 hPa | 0 mm | 2.68 m/s, 180° | - | - |
| 1778011817 | 28.89° C | 36% | 1005.8 hPa | 0 mm | 2.24 m/s, 225° | - | - |
* Rain latest hour (hover to see other rain measurements)
** Current wind speed in m/s (hover to see current wind gust speed)